| time (UTC) | temp F | wind direction | speed MPH | gust MPH | rain 1hr in | rain 24hr in | rain mn in | humidity % | barometer mb |
| 20260506003054 | 64 | 360 | 3.0 | 6.0 | 0.00 | 0.00 | 0.00 | 62 | 1007.8 |
| 20260506001551 | 64 | 0 | 1.0 | 4.0 | 0.00 | 0.00 | 0.00 | 61 | 1007.1 |
| 20260506000055 | 65 | 360 | 1.0 | 6.0 | 0.00 | 0.00 | 0.00 | 60 | 1006.7 |
| 20260505234555 | 65 | 0 | 1.0 | 3.0 | 0.00 | 0.00 | 0.00 | 60 | 1006.1 |
| 20260505233053 | 65 | 360 | 0.0 | 8.0 | 0.00 | 0.00 | 0.00 | 61 | 1006.2 |
| 20260505231602 | 64 | 360 | 2.0 | 12.0 | 0.00 | 0.00 | 0.00 | 61 | 1006.3 |
| 20260505230059 | 63 | 360 | 5.0 | 16.0 | 0.00 | 0.00 | 0.00 | 63 | 1006.6 |
| 20260505224554 | 63 | 360 | 8.0 | 18.0 | 0.00 | 0.00 | 0.00 | 61 | 1004.8 |
| 20260505223056 | 63 | 360 | 6.0 | 19.0 | 0.00 | 0.00 | 0.00 | 61 | 1004.6 |
| 20260505221554 | 63 | 360 | 7.0 | 19.0 | 0.00 | 0.00 | 0.00 | 61 | 1004.6 |
| 20260505220055 | 64 | 360 | 8.0 | 20.0 | 0.00 | 0.00 | 0.00 | 61 | 1004.4 |
| 20260505214556 | 63 | 360 | 8.0 | 18.0 | 0.00 | 0.00 | 0.00 | 62 | 1004.4 |
| 20260505213104 | 63 | 360 | 9.0 | 19.0 | 0.00 | 0.00 | 0.00 | 62 | 1004.2 |
| 20260505211557 | 63 | 360 | 5.0 | 18.0 | 0.00 | 0.00 | 0.00 | 62 | 1004.2 |
| 20260505210055 | 64 | 360 | 5.0 | 17.0 | 0.00 | 0.00 | 0.00 | 60 | 1004.2 |
| 20260505204554 | 65 | 360 | 7.0 | 19.0 | 0.00 | 0.00 | 0.00 | 59 | 1004.0 |
| 20260505203100 | 66 | 360 | 9.0 | 21.0 | 0.00 | 0.00 | 0.00 | 59 | 1004.2 |
| 20260505201552 | 66 | 360 | 7.0 | 14.0 | 0.00 | 0.00 | 0.00 | 59 | 1004.2 |
| 20260505200049 | 66 | 360 | 5.0 | 17.0 | 0.00 | 0.00 | 0.00 | 59 | 1004.3 |
| 20260505194551 | 66 | 360 | 8.0 | 19.0 | 0.00 | 0.00 | 0.00 | 60 | 1004.6 |
| 20260505193055 | 66 | 360 | 9.0 | 18.0 | 0.00 | 0.00 | 0.00 | 59 | 1004.7 |
| 20260505191610 | 66 | 360 | 7.0 | 20.0 | 0.00 | 0.00 | 0.00 | 58 | 1004.9 |
| 20260505190052 | 68 | 190 | 8.0 | 22.0 | 0.00 | 0.00 | 0.00 | 57 | 1005.1 |
| 20260505184555 | 68 | 210 | 12.0 | 21.0 | 0.00 | 0.00 | 0.00 | 55 | 1005.2 |
| 20260505183054 | 68 | 360 | 4.0 | 19.0 | 0.00 | 0.00 | 0.00 | 56 | 1005.3 |
| 20260505181556 | 68 | 360 | 4.0 | 15.0 | 0.00 | 0.00 | 0.00 | 56 | 1005.4 |
| 20260505180104 | 68 | 360 | 6.0 | 13.0 | 0.00 | 0.00 | 0.00 | 57 | 1005.7 |
| 20260505174604 | 67 | 360 | 8.0 | 17.0 | 0.00 | 0.00 | 0.00 | 57 | 1005.7 |
| 20260505173052 | 69 | 360 | 6.0 | 17.0 | 0.00 | 0.00 | 0.00 | 55 | 1006.0 |
| 20260505171552 | 69 | 181 | 8.0 | 17.0 | 0.00 | 0.00 | 0.00 | 54 | 1006.1 |
| 20260505170052 | 70 | 360 | 9.0 | 15.0 | 0.00 | 0.00 | 0.00 | 53 | 1006.2 |
| 20260505164552 | 70 | 360 | 3.0 | 11.0 | 0.00 | 0.00 | 0.00 | 54 | 1006.6 |
| 20260505163052 | 69 | 360 | 2.0 | 10.0 | 0.00 | 0.00 | 0.00 | 55 | 1006.9 |
| 20260505161555 | 69 | 360 | 4.0 | 10.0 | 0.00 | 0.00 | 0.00 | 54 | 1007.3 |
| 20260505153050 | 68 | 360 | 3.0 | 6.0 | 0.00 | 0.00 | 0.00 | 56 | 1007.7 |
| 20260505151558 | 65 | 360 | 2.0 | 8.0 | 0.00 | 0.00 | 0.00 | 60 | 1008.1 |
| 20260505124553 | 59 | 178 | 1.0 | 6.0 | 0.00 | 0.00 | 0.00 | 66 | 1007.8 |
| 20260505123101 | 57 | 180 | 3.0 | 7.0 | 0.00 | 0.00 | 0.00 | 68 | 1007.9 |
| 20260505121556 | 55 | 0 | 2.0 | 9.0 | 0.00 | 0.00 | 0.00 | 69 | 1007.9 |
| 20260505120054 | 54 | 360 | 2.0 | 8.0 | 0.00 | 0.00 | 0.00 | 71 | 1008.0 |
| 20260505114555 | 53 | 360 | 2.0 | 6.0 | 0.00 | 0.00 | 0.00 | 72 | 1008.4 |
| 20260505113055 | 52 | 360 | 3.0 | 8.0 | 0.00 | 0.00 | 0.00 | 74 | 1008.7 |
| 20260505111555 | 51 | 360 | 0.0 | 6.0 | 0.00 | 0.00 | 0.00 | 75 | 1008.5 |
| 20260505101609 | 49 | 360 | 0.0 | 2.0 | 0.00 | 0.00 | 0.00 | 76 | 1008.3 |
| 20260505100105 | 49 | 0 | 0.0 | 0.0 | 0.00 | 0.00 | 0.00 | 75 | 1008.2 |
| 20260505094556 | 49 | 0 | 0.0 | 1.0 | 0.00 | 0.00 | 0.00 | 74 | 1008.3 |
| 20260505093104 | 50 | 0 | 0.0 | 2.0 | 0.00 | 0.00 | 0.00 | 73 | 1008.2 |
| 20260505091555 | 50 | 0 | 0.0 | 3.0 | 0.00 | 0.00 | 0.00 | 72 | 1008.3 |
| 20260505090108 | 51 | 0 | 0.0 | 3.0 | 0.00 | 0.00 | 0.00 | 69 | 1008.3 |
| 20260505084605 | 53 | 360 | 1.0 | 4.0 | 0.00 | 0.00 | 0.00 | 66 | 1008.6 |
| 20260505083053 | 53 | 360 | 1.0 | 3.0 | 0.00 | 0.00 | 0.00 | 64 | 1008.4 |
| 20260505081609 | 54 | 360 | 0.0 | 2.0 | 0.00 | 0.00 | 0.00 | 63 | 1008.5 |
| 20260505074557 | 54 | 360 | 1.0 | 4.0 | 0.00 | 0.00 | 0.00 | 61 | 1008.6 |
| 20260505073100 | 55 | 360 | 2.0 | 8.0 | 0.00 | 0.00 | 0.00 | 61 | 1008.6 |
| 20260505071556 | 55 | 360 | 1.0 | 6.0 | 0.00 | 0.00 | 0.00 | 60 | 1008.6 |
| 20260505070057 | 56 | 360 | 2.0 | 11.0 | 0.00 | 0.00 | 0.00 | 59 | 1008.4 |
| 20260505064550 | 56 | 360 | 3.0 | 8.0 | 0.00 | 0.00 | 0.00 | 58 | 1008.4 |
| 20260505063109 | 56 | 360 | 2.0 | 5.0 | 0.00 | 0.00 | 0.00 | 58 | 1008.3 |
| 20260505061552 | 57 | 360 | 2.0 | 10.0 | 0.00 | 0.00 | 0.00 | 57 | 1008.4 |
| 20260505060054 | 57 | 360 | 2.0 | 11.0 | 0.00 | 0.00 | 0.00 | 56 | 1008.5 |
| 20260505054552 | 58 | 360 | 2.0 | 10.0 | 0.00 | 0.00 | 0.00 | 55 | 1008.5 |
| 20260505053051 | 58 | 360 | 3.0 | 8.0 | 0.00 | 0.00 | 0.00 | 55 | 1008.4 |
| 20260505051556 | 58 | 360 | 2.0 | 6.0 | 0.00 | 0.00 | 0.00 | 54 | 1008.4 |
| 20260505041554 | 59 | 360 | 3.0 | 10.0 | 0.00 | 0.00 | 0.00 | 54 | 1008.1 |
| 20260505040052 | 59 | 360 | 3.0 | 12.0 | 0.00 | 0.00 | 0.00 | 54 | 1007.9 |
| 20260505034553 | 58 | 360 | 2.0 | 6.0 | 0.00 | 0.00 | 0.00 | 56 | 1007.9 |
| 20260505033052 | 58 | 360 | 2.0 | 8.0 | 0.00 | 0.00 | 0.00 | 57 | 1007.8 |
| 20260505031553 | 57 | 360 | 2.0 | 9.0 | 0.00 | 0.00 | 0.00 | 58 | 1007.9 |
| 20260505030052 | 56 | 360 | 2.0 | 10.0 | 0.00 | 0.00 | 0.00 | 61 | 1007.8 |
| 20260505024554 | 54 | 360 | 1.0 | 3.0 | 0.00 | 0.00 | 0.00 | 64 | 1007.9 |
| 20260505023058 | 55 | 360 | 0.0 | 3.0 | 0.00 | 0.00 | 0.00 | 64 | 1007.7 |
| 20260505021554 | 55 | 360 | 0.0 | 5.0 | 0.00 | 0.00 | 0.00 | 63 | 1007.5 |
| 20260505020056 | 55 | 360 | 1.0 | 6.0 | 0.00 | 0.00 | 0.00 | 63 | 1007.5 |
| 20260505014609 | 55 | 0 | 1.0 | 5.0 | 0.00 | 0.00 | 0.00 | 63 | 1007.4 |
| 20260505013057 | 55 | 360 | 1.0 | 5.0 | 0.00 | 0.00 | 0.00 | 62 | 1007.2 |
| 20260505011556 | 56 | 360 | 1.0 | 5.0 | 0.00 | 0.00 | 0.00 | 59 | 1007.0 |
| 20260505010115 | 57 | 360 | 0.0 | 2.0 | 0.00 | 0.00 | 0.00 | 59 | 1006.8 |
| 20260505004555 | 58 | 0 | 0.0 | 0.0 | 0.00 | 0.00 | 0.00 | 57 | 1006.5 |